Zurück zum Katalog

FENGYUN 1C DEB

AktivPO
NORAD 37474·DEBRIS·🇨🇳 China

Gestartet May 10, 1999 von Taiyuan Satellite Launch Center

Loading…

Nächste Überflüge (nächste 24 Stunden)

TLE

VeraltetSource: Space-Track

Epoche: Sep 2, 2026, 21:59 UTC

1 37474U 99025EJU 26245.91659330  .00005276  00000-0  62461-3 0  9997
2 37474  99.1357 131.7867 0122970  31.1506 329.6916 14.79800731662775

Verfolge FENGYUN 1C DEB in Echtzeit mit AllMySat

Download on the App Store